Portada
METAR-TAF:

METAR-TAF

Aeroports :

Mackay, Austràlia

latitud: 21-10-18S, longitud: 149-10-47E, altitud: 6 m

Observació

L'informe es va fer fa 56 minuts, a les 12:00 UTC
Vent 5 kt del Est/Nord-Est
Temperatura 27°C
Humitat 79%
Pressió 1014 hPa
Visibilitat 10 km o més
Núvols disperses a una alçada de 2100 ft
Cel ennuvolat a una alçada de 2700 ft
Cel ennuvolat a una alçada de 3200 ft

METAR: YBMK 241200Z AUTO 07005KT 9999 // SCT021 BKN027 BKN032 27/23 Q1014

Hora: 22:56 (12:56 UTC)


TAF: manca

Observacions i pronòstics meteorològics de més de 4000 aeroports (METAR i TAF).

Les estacions disponibles són els punts grocs i vermells al mapa.

Posi el ratolí al punt desitjat per veure el nom de l'estació.

Feu clic per veure les observacions i els pronòstics meteorològics.

Per canviar el mapa: feu clic els botons verds amb una creu de color negre per apropar; al botó verd amb un guió per allunyar la imatge; o en les fletxes verdes per a mapes adjacents.


METAR-TAF: